Regional Weather Roundup
Issued by NWS

Home | Current Version | Previous Version | Graphics & Text | Print | Product List | Glossary On
Versions: 1 2 3 4 5 6 7 8 9 10 11 12 13 14 15 16 17 18 19 20 21 22 23 24 25 26 27 28 29 30 31 32 33 34 35 36 37 38 39 40 41 42 43 44 45 46 47 48 49 50
000
ASUS43 KOAX 041610
RWRNE

WEATHER ROUNDUP FOR NEBRASKA
NATIONAL WEATHER SERVICE OMAHA NE
1100 AM CDT SAT JUL 04 2015

NOTES: SATELLITE DATA IS BEING USED TO AUGMENT CLOUD COVER ABOVE
       12000 FEET.
       "FAIR" INDICATES FEW OR NO CLOUDS BELOW 12,000 FEET WITH NO
       SIGNIFICANT WEATHER AND/OR OBSTRUCTIONS TO VISIBILITY.

  * THESE STATIONS DO NOT REPORT WEATHER SUCH AS RAIN...SNOW OR FOG.

NEZ001>004-019>022-054>056-041700-
NEBRASKA PANHANDLE

CITY           SKY/WX    TMP DP  RH WIND       PRES   REMARKS
SCOTTSBLUFF    SUNNY     77  62  59 VRB6      29.94S
ALLIANCE       SUNNY     75  63  66 S13       29.93F
CHADRON        SUNNY     80  63  55 SW8       29.88F
KIMBALL          N/A    N/A N/A N/A MISG        N/A
SIDNEY         SUNNY     78  60  53 S12       29.98S
$$

NEZ057>060-069>072-079>082-041700-
SOUTHWEST NEBRASKA

CITY           SKY/WX    TMP DP  RH WIND       PRES   REMARKS
NORTH PLATTE   SUNNY     80  62  54 S13       29.94F
IMPERIAL       MOSUNNY   80  61  52 S13       29.95F
LEXINGTON      SUNNY     79  64  60 S14       29.97F
MCCOOK         MOSUNNY   83  63  50 SE12      29.95F
OGALLALA       MOSUNNY   78  64  61 SE8       29.95S
$$

NEZ005>010-023>029-035>040-094-041700-
NORTH CENTRAL NEBRASKA

CITY           SKY/WX    TMP DP  RH WIND       PRES   REMARKS
VALENTINE      SUNNY     80  62  54 S16       29.91F
AINSWORTH      MOSUNNY   78  63  60 S12       29.94S
BROKEN BOW     SUNNY     78  65  63 S12       29.96F
O`NEILL        PTSUNNY   76  66  71 S9        29.95F
ORD            PTSUNNY   76  62  62 S14       29.95F
THEDFORD       SUNNY     79  64  60 S16       29.95F
$$

NEZ041-046>049-061>064-073>077-083>087-041700-
SOUTH CENTRAL NEBRASKA

CITY           SKY/WX    TMP DP  RH WIND       PRES   REMARKS
GRAND ISLAND   PTSUNNY   75  64  68 S15       29.99S
AURORA         PTSUNNY   75  65  73 S9        29.99S
HASTINGS       MOSUNNY   76  66  71 S9G16     29.99F
HEBRON         PTSUNNY   75  60  58 S8        30.00F
HOLDREGE       SUNNY     76  64  66 S13       29.99S
KEARNEY *      MOSUNNY   75  64  69 S16       29.98F
YORK           PTSUNNY   73  64  73 S9        30.00S
$$

NEZ011>018-030>034-042>045-041700-
NORTHEAST NEBRASKA

CITY           SKY/WX    TMP DP  RH WIND       PRES   REMARKS
NORFOLK        MOSUNNY   77  66  68 S9        29.98S
ALBION         CLOUDY    73  62  68 S9        29.98S
BLAIR          SUNNY     74  60  60 S6        30.01S
COLUMBUS *     PTSUNNY   75  61  60 S6        30.00S
FREMONT        SUNNY     75  61  60 SE7       30.00F
TEKAMAH        SUNNY     76  63  64 S8        29.99F
WAYNE          MOSUNNY   75  67  75 S8        29.98S
$$

NEZ050>053-065>068-078-088>093-041700-
SOUTHEAST NEBRASKA

CITY           SKY/WX    TMP DP  RH WIND       PRES   REMARKS
LINCOLN        MOSUNNY   77  61  57 S7        30.00F
OMAHA EPPLEY   MOSUNNY   75  59  57 SE7       30.00F
BEATRICE       MOSUNNY   76  61  60 S7        30.01S
FALLS CITY     SUNNY     76  62  62 S7        30.02S
NEBRASKA CITY  SUNNY     74  58  56 S7        30.02S
PLATTSMOUTH    SUNNY     74  59  58 S7        30.01S
$$

NEZ044-045-051>053-067-041700-
OMAHA AREA

CITY           SKY/WX    TMP DP  RH WIND       PRES   REMARKS
OMAHA EPPLEY   MOSUNNY   75  59  57 SE7       30.00F
BLAIR          SUNNY     74  60  60 S6        30.01S
FREMONT        SUNNY     75  61  60 SE7       30.00F
MILLARD        SUNNY     76  59  55 SE6       30.00F
OFFUTT AFB     SUNNY     74  62  66 SE5       30.00S
PLATTSMOUTH    SUNNY     74  59  58 S7        30.01S
WAHOO          FAIR      76  62  62 S8        30.00S
$$


USA.gov is the U.S. government's official web portal to all federal, state and local government web resources and services.